Regional Weather Roundup
Issued by NWS Midland/Odessa, TX

Skip options and go directly to product.
Home | Oldest Version | Previous Version | Current Version | All | Text Only | Save Text | Print | Product List | Glossary Off

Skip product version selection by date and time.   

010
ASUS44 KMAF 272010
RWRMAF
MIDLAND AREA WEATHER ROUNDUP
NATIONAL WEATHER SERVICE MIDLAND TX
300 PM CDT WED MAY 27 2015

...IN SOUTHWEST TEXAS AND SOUTHEAST NEW MEXICO...

CITY           SKY/WX    TMP DP  RH WIND       PRES   REMARKS
ALPINE         SUNNY     91  40  16 S13       30.13F
ANDREWS        PTSUNNY   85  64  49 SE9G23    30.04F
ARTESIA        MOSUNNY   90  46  22 SE14      30.02F
BIG SPRING     MOSUNNY   87  61  41 SE15      30.05F
CARLSBAD       MOSUNNY   91  51  25 SE7G18    29.99F
DRYDEN           N/A     92  67  43 SE14G25   29.98F
FORT STOCKTON  SUNNY     91  58  32 E15G21    30.00F
GUAD PASS      MOSUNNY   89  30  12 S14G21    30.15F
HOBBS          MOSUNNY   86  57  37 SE12G20   30.06F
MARFA          SUNNY     88  45  22 SE13G18   30.13F
MIDLAND AIRPK  MOSUNNY   89  62  40 SE12G17   30.03F
MIDLAND INTL   MOSUNNY   89  63  41 MISG      30.02F
ODESSA         MOSUNNY   89  62  40 SE13G22   30.03F
PECOS          SUNNY     92  54  27 E12G18    29.96F
PRESIDIO       FAIR      97  41  14 S5        29.93F
SEMINOLE       MOSUNNY   88  61  39 SE12      30.05F
SNYDER         MOSUNNY   85  67  55 SE9G17    30.05F
WINK           SUNNY     92  59  33 SE9G23    29.97F
$$
...OTHER STATIONS IN TEXAS...

CITY           SKY/WX    TMP DP  RH WIND       PRES   REMARKS
ABILENE        MOSUNNY   88  69  53 S13       30.03F
AMARILLO       MOSUNNY   84  59  42 S14       30.07F
AUSTIN         CLOUDY    81  76  84 E7        30.03F
BROWNSVILLE    MOSUNNY   89  75  63 SE17      29.99F
CORPUS CHRISTI MOSUNNY   87  74  64 SE18G24   30.02F
DALLAS FTW     PTSUNNY   84  66  54 S10       30.04F
DEL RIO        PTSUNNY   88  74  63 SE14G22   29.97F
EL PASO        CLOUDY    89  20   8 E7        30.01F
HOUSTON INT    MOSUNNY   83  71  67 VRB3      30.06F
LUBBOCK        PTSUNNY   84  65  52 SE16G24   30.05F
SAN ANGELO     MOSUNNY   89  68  49 S12       30.01F
SAN ANTONIO    MOSUNNY   88  70  55 SE17G25   30.03F
WACO           PTSUNNY   85  71  63 S8        30.04F
WICHITA FALLS  NOT AVBL
$$
...OTHER LOCATIONS IN NEW MEXICO...

CITY           SKY/WX    TMP DP  RH WIND       PRES   REMARKS
ALAMAGORDO     PTSUNNY   88  23   9 SW7G22    30.04F
ALBUQUERQUE    PTSUNNY   77  33  20 S10G16    30.13F
CANNON AFB     PTSUNNY   83  49  30 S16G22    30.08F
CLOVIS         PTSUNNY   81  55  41 S15G23      N/A
HOLLOMAN AFB   PTSUNNY   88  21   8 S9        30.02F
ROSWELL        PTSUNNY   87  47  24 S7        30.02F
RUIDOSO        PTSUNNY   75  23  14 SW15      30.23F
SANTA FE       PTSUNNY   76  35  22 W12G20    30.16F
TRUTH OR CONSE CLOUDY    84  20   9 S16G25    30.07F
TUCUMCARI      MOSUNNY   87  42  20 SW18G26   30.04F
$$

USA.gov is the U.S. government's official web portal to all federal, state and local government web resources and services.